Regional Weather Roundup
Issued by NWS Upton, NY

Current Version | Previous Version | Text Only | Print | Product List | Glossary On
Versions: 1 2 3 4 5 6 7 8 9 10 11 12 13 14 15 16 17 18 19 20 21 22 23 24 25 26 27 28 29 30 31 32 33 34 35 36 37 38 39 40 41 42 43 44 45 46 47 48 49 50
000 ASUS41 KOKX 020305 RWROKX REGIONAL WEATHER ROUNDUP NATIONAL WEATHER SERVICE NEW YORK NY 1100 PM EDT WED OCT 01 2014 NOTE: "FAIR" INDICATES FEW OR NO CLOUDS BELOW 12,000 FEET WITH NO SIGNIFICANT WEATHER AND/OR OBSTRUCTIONS TO VISIBILITY. NYZ071-072-176-178-NJZ106-104-020400- NEW YORK CITY METRO AREA CITY SKY/WX TMP DP RH WIND PRES REMARKS CENTRAL PARK CLOUDY 63 55 75 NE10G18 30.10S LAGUARDIA APRT CLOUDY 62 56 80 NE13 30.08R KENNEDY INTL CLOUDY 62 56 80 N13 30.08R NEWARK/LIBERTY CLOUDY 63 56 78 N9 30.08R BRNX BOT. GARD N/A 61 55 82 E2 30.08F TETERBORO CLOUDY 63 55 75 NE5 30.07R $$ NYZ177-179-078>081-020400- LONG ISLAND NEW YORK CITY SKY/WX TMP DP RH WIND PRES REMARKS FARMINGDALE LGT RAIN 60 57 89 NE10 30.07S FOG ISLIP CLOUDY 59 57 93 NE8 30.05S SHIRLEY CLOUDY 59 57 93 N8 30.07S FOG WESTHAMPTON LGT RAIN 59 57 93 N12 30.07S FOG MONTAUK POINT N/A 60 57 89 N13G22 30.06R $$ NYZ052-065-067-020400- HUDSON VALLEY CITY SKY/WX TMP DP RH WIND PRES REMARKS WHITE PLAINS LGT RAIN 59 56 89 N6 30.08R NEWBURGH CLOUDY 59 59 100 NE8 30.11S FOG MONTGOMERY CLOUDY 60 58 92 NE8 30.10S POUGHKEEPSIE LGT RAIN 60 58 92 CALM 30.09F FOG ALBANY LGT RAIN 60 58 92 N5 30.13S $$ NJZ001-105-106-008-010-013-015-019>022-104-020400- NEW JERSEY CITY SKY/WX TMP DP RH WIND PRES REMARKS NEWARK/LIBERTY CLOUDY 63 56 78 N9 30.08R TETERBORO CLOUDY 63 55 75 NE5 30.07R CALDWELL CLOUDY 62 55 77 E9 30.09R MORRISTOWN CLOUDY 63 57 82 CALM 30.09R SOMERVILLE CLOUDY 61 57 87 CALM 30.07R LINDEN CLOUDY 67 59 74 NE8 30.09S SUSSEX CLOUDY 63 58 83 NE3 30.10R ANDOVER N/A 61 57 87 VRB3 30.10R TRENTON CLOUDY 63 58 83 N6 30.07S MILLVILLE PTCLDY 61 58 90 NE6 30.06S ATLANTIC CITY CLOUDY 62 59 90 N6 30.06S WRIGHTSTOWN MOCLDY 60 59 96 NW6 30.05S TOMS RIVER PTCLDY 61 57 88 CALM 30.07R BELMAR CLOUDY 61 55 82 N5 30.07R $$ PAZ047>061-062-071-020400- EASTERN PENNSYLVANIA CITY SKY/WX TMP DP RH WIND PRES REMARKS PHILADELPHIA MOCLDY 65 58 78 E7 30.07S ALLENTOWN CLOUDY 60 55 83 CALM 30.09S SCRANTON MOCLDY 61 54 77 NE5 30.09S $$ CTZ002-004>006-009-010-012-RIZ004-006-007-MAZ004-011-015-020400- SOUTHERN NEW ENGLAND IN CT CITY SKY/WX TMP DP RH WIND PRES REMARKS BRADLEY INTL LGT RAIN 59 55 87 N8 30.10S HARTFORD LGT RAIN 58 55 90 N10 30.10S DANBURY CLOUDY 58 55 90 NE6 30.11R WTRBRY/OXFORD CLOUDY 57 52 82 NE10 30.11S BRIDGEPORT CLOUDY 60 57 89 N9 30.08S MERIDEN LGT RAIN 58 55 90 N9 30.09S FOG NEW HAVEN CLOUDY 61 56 83 N13 30.07F CHESTER RAIN 57 55 94 N8 30.09S GROTON CLOUDY 57 56 96 N10 30.06S WILLIMANTIC LGT RAIN 58 55 90 N8 30.10R IN RI CITY SKY/WX TMP DP RH WIND PRES REMARKS PROVIDENCE CLOUDY 58 56 93 N15G22 30.08S BLOCK ISLAND CLOUDY 59 55 88 N10G20 30.04S WESTERLY CLOUDY 58 56 93 N8 30.06F IN MA CITY SKY/WX TMP DP RH WIND PRES REMARKS BOSTON LGT RAIN 56 56 100 NE16G25 30.10F FOG WORCESTER RAIN 54 53 97 NE9 30.12S FOG WESTFIELD LGT RAIN 58 55 90 N7 30.12S PROVINCETOWN CLOUDY 61 57 88 NE18G26 30.05F NANTUCKET CLOUDY 61 59 93 NE20G28 29.99R $$ ANZ330-335-338-340-345-350-353-355-020400- COASTAL MARINE OBSERVATIONS STATION/POSITION TIME SKY/WX TEMP WIND PRES VSBY WAVE AIR SEA DIR/SP/G HT/PER (UTC) (F) (DEG/KT/KT) (MB) (MI) (FT/S) NY HARB ENTRANCE NOT AVBL 4S FIRE IS 0300 67 N/A 4/ 6 20S FIRE ISLAND 0300 62 67 20/ 19/ 23 1016.9 6/ 7 23SW MTP 0300 N/A 6/ 6 HUDSON CANYON 0300 65 70 10/ 19/ 23 1014.9 7/ 7 EXECUTION ROCKS 0300 62 68 30/ 14/ 19 N/A WESTERN LI SOUND 0300 62 40/ 12/ 16 N/A 2/ 4 CENTRAL LI SOUND 0200 60 68 10/ 17/ 21 N/A 2/ 4 EASTERN LI SOUND 0200 60 65 20/ 16/ 19 N/A ROBBINS REEF 0200 64 N/A $$ >>>>>>>>>>>>>>>>>>>>>>>>>>>> KEY <<<<<<<<<<<<<<<<<<<<<<<<<<< > < > SKY/WX - SKY CONDITION/PRESENT WEATHER < > TMP - TEMPERATURE IN FAHRENHEIT < > DP - DEWPOINT IN FAHRENHEIT < > RH - RELATIVE HUMIDITY IN PERCENT < > WIND - DIRECTION AND SPEED IN MPH < > PRES - MEAN SEA LEVEL PRESSURE IN INCHES OF HG < > WCI - WIND CHILL INDEX < > VSB - VISIBILITY IN MILES < > HX - HEAT INDEX < > TC - TEMPERATURE IN CELSIUS < > VRB - VARIABLE WIND DIRECTION < > < >>>>>>>>>>>>>>>>>>>>>>>>>>>> KEY <<<<<<<<<<<<<<<<<<<<<<<<<<<

USA.gov is the U.S. government's official web portal to all federal, state and local government web resources and services.